When you browse on this site, cookies collect data to enhance your experience and personalize the content and advertising you see.
Visit our Privacy Policy to learn more. By continuing to use the site, you agree to this use of cookies and data.
  • In Hungary
  • List of Countries
  • For 7 days
  • Water Temperature
  • Weather Map
  • News
  • Weather Widgets
  • user-avatar
    Login

    Hourly Weather Lankaran

    Today, 27 May, Wednesday

    Time Temperature Precipitation Wind Pressure Humidity
    00:00 +8°C° 0 mm 0 mps 636 mmHg 68%
    01:00 +8°C° 0 mm 0 mps 636 mmHg 69%
    02:00 +9°C° 0 mm 1 mps 636 mmHg 69%
    03:00 +9°C° 0 mm 1 mps 636 mmHg 72%
    04:00 +10°C° 0 mm 1 mps 636 mmHg 70%
    05:00 +11°C° 0 mm 1 mps 637 mmHg 68%
    06:00 +12°C° 0 mm 1 mps 638 mmHg 65%
    07:00 +13°C° 0 mm 1 mps 638 mmHg 61%
    08:00 +15°C° 0 mm 2 mps 639 mmHg 56%
    09:00 +16°C° 0 mm 3 mps 639 mmHg 50%
    10:00 +17°C° 0 mm 3 mps 639 mmHg 49%
    11:00 +18°C° 0 mm 3 mps 639 mmHg 48%
    12:00 +19°C° 0 mm 3 mps 639 mmHg 47%
    13:00 +19°C° 0 mm 3 mps 639 mmHg 48%
    14:00 +19°C° 0 mm 3 mps 638 mmHg 50%
    15:00 +19°C° 0 mm 3 mps 638 mmHg 52%
    16:00 +18°C° 0 mm 2 mps 637 mmHg 57%
    17:00 +17°C° 0 mm 2 mps 637 mmHg 62%
    18:00 +16°C° 0 mm 1 mps 636 mmHg 67%
    19:00 +15°C° 0 mm 1 mps 636 mmHg 69%
    20:00 +14°C° 0 mm 1 mps 636 mmHg 71%
    21:00 +12°C° 0 mm 1 mps 636 mmHg 72%
    22:00 +12°C° 0 mm 1 mps 636 mmHg 71%
    23:00 +12°C° 0 mm 1 mps 635 mmHg 70%

    Tomorrow, 28 May, Thursday

    Time Temperature Precipitation Wind Pressure Humidity
    00:00 +12°C° 0 mm 1 mps 635 mmHg 69%
    01:00 +12°C° 0 mm 1 mps 635 mmHg 70%
    02:00 +12°C° 0 mm 1 mps 635 mmHg 71%
    03:00 +11°C° 0 mm 1 mps 634 mmHg 71%
    04:00 +12°C° 0 mm 0 mps 635 mmHg 68%
    05:00 +13°C° 0 mm 0 mps 636 mmHg 66%
    06:00 +14°C° 0 mm 0 mps 636 mmHg 63%
    07:00 +18°C° 0 mm 1 mps 636 mmHg 58%
    08:00 +19°C° 0 mm 1 mps 637 mmHg 53%
    09:00 +20°C° 0 mm 2 mps 637 mmHg 48%
    10:00 +20°C° 0 mm 2 mps 637 mmHg 48%
    11:00 +21°C° 0 mm 3 mps 637 mmHg 48%
    12:00 +22°C° 0 mm 3 mps 637 mmHg 47%
    13:00 +22°C° 0 mm 3 mps 636 mmHg 48%
    14:00 +22°C° 0 mm 3 mps 636 mmHg 49%
    15:00 +22°C° 0 mm 3 mps 635 mmHg 50%
    16:00 +20°C° 0 mm 2 mps 635 mmHg 56%
    17:00 +19°C° 0 mm 2 mps 634 mmHg 61%
    18:00 +18°C° 0 mm 2 mps 634 mmHg 67%
    19:00 +18°C° 0 mm 1 mps 634 mmHg 68%
    20:00 +16°C° 0 mm 1 mps 634 mmHg 69%
    21:00 +15°C° 0 mm 1 mps 633 mmHg 70%
    22:00 +15°C° 0 mm 1 mps 633 mmHg 70%
    23:00 +15°C° 0 mm 1 mps 633 mmHg 70%

    Day after tomorrow, 29 May, Friday

    Time Temperature Precipitation Wind Pressure Humidity
    00:00 +15°C° 0 mm 1 mps 633 mmHg 71%
    01:00 +15°C° 0 mm 1 mps 633 mmHg 71%
    02:00 +15°C° 0 mm 1 mps 632 mmHg 71%
    03:00 +14°C° 0 mm 1 mps 632 mmHg 71%
    04:00 +16°C° 0 mm 1 mps 632 mmHg 69%
    05:00 +18°C° 0 mm 1 mps 633 mmHg 66%
    06:00 +17°C° 0 mm 0 mps 633 mmHg 63%
    07:00 +21°C° 0 mm 1 mps 634 mmHg 58%
    08:00 +21°C° 0 mm 2 mps 634 mmHg 53%
    09:00 +24°C° 0 mm 2 mps 635 mmHg 49%
    10:00 +25°C° 0 mm 3 mps 635 mmHg 46%
    11:00 +26°C° 0 mm 3 mps 635 mmHg 43%
    12:00 +27°C° 0 mm 3 mps 635 mmHg 40%
    13:00 +27°C° 0 mm 3 mps 634 mmHg 40%
    14:00 +27°C° 0 mm 4 mps 633 mmHg 41%
    15:00 +26°C° 0 mm 4 mps 633 mmHg 42%
    16:00 +25°C° 0 mm 3 mps 632 mmHg 47%
    17:00 +24°C° 0 mm 3 mps 632 mmHg 51%
    18:00 +23°C° 0 mm 2 mps 632 mmHg 55%
    19:00 +21°C° 0 mm 2 mps 631 mmHg 50%
    20:00 +20°C° 0 mm 2 mps 631 mmHg 45%
    21:00 +19°C° 0 mm 2 mps 631 mmHg 40%
    22:00 +19°C° 0 mm 2 mps 630 mmHg 37%
    23:00 +18°C° 0 mm 2 mps 630 mmHg 34%

    30 May, Saturday

    Time Temperature Precipitation Wind Pressure Humidity
    00:00 +18°C° 0 mm 2 mps 630 mmHg 32%
    01:00 +18°C° 0 mm 2 mps 630 mmHg 30%
    02:00 +17°C° 0 mm 2 mps 630 mmHg 29%
    03:00 +17°C° 0 mm 3 mps 629 mmHg 27%
    04:00 +17°C° 0 mm 2 mps 630 mmHg 32%
    05:00 +18°C° 0 mm 2 mps 630 mmHg 36%
    06:00 +18°C° 0 mm 2 mps 631 mmHg 40%
    07:00 +20°C° 0 mm 3 mps 632 mmHg 37%
    08:00 +22°C° 0 mm 3 mps 633 mmHg 35%
    09:00 +25°C° 0 mm 4 mps 634 mmHg 32%
    10:00 +25°C° 0 mm 4 mps 634 mmHg 33%
    11:00 +26°C° 0 mm 3 mps 634 mmHg 34%
    12:00 +27°C° 0 mm 3 mps 635 mmHg 35%
    13:00 +25°C° 0.1 mm 4 mps 634 mmHg 45%
    14:00 +22°C° 0.1 mm 4 mps 633 mmHg 54%
    15:00 +20°C° 0.1 mm 4 mps 633 mmHg 64%
    16:00 +19°C° 0 mm 4 mps 632 mmHg 70%
    17:00 +17°C° 0 mm 3 mps 632 mmHg 76%
    18:00 +14°C° 0 mm 3 mps 632 mmHg 82%
    19:00 +14°C° 0 mm 2 mps 632 mmHg 84%
    20:00 +13°C° 0 mm 2 mps 632 mmHg 87%
    21:00 +12°C° 0 mm 1 mps 632 mmHg 90%
    22:00 +12°C° 0 mm 1 mps 632 mmHg 88%
    23:00 +11°C° 0 mm 1 mps 632 mmHg 87%

    31 May, Sunday

    Time Temperature Precipitation Wind Pressure Humidity
    00:00 +11°C° 0 mm 1 mps 632 mmHg 86%
    01:00 +11°C° 0 mm 1 mps 632 mmHg 85%
    02:00 +10°C° 0 mm 2 mps 632 mmHg 84%
    03:00 +10°C° 0 mm 2 mps 632 mmHg 84%
    04:00 +10°C° 0 mm 2 mps 633 mmHg 82%
    05:00 +12°C° 0 mm 2 mps 633 mmHg 81%
    06:00 +12°C° 0 mm 2 mps 634 mmHg 79%
    07:00 +14°C° 0 mm 2 mps 635 mmHg 73%
    08:00 +14°C° 0 mm 3 mps 635 mmHg 66%
    09:00 +17°C° 0 mm 3 mps 636 mmHg 59%
    10:00 +17°C° 0 mm 4 mps 636 mmHg 57%
    11:00 +18°C° 0 mm 4 mps 636 mmHg 55%
    12:00 +18°C° 0 mm 4 mps 636 mmHg 54%
    13:00 +18°C° 0 mm 4 mps 635 mmHg 55%
    14:00 +18°C° 0 mm 4 mps 635 mmHg 56%
    15:00 +18°C° 0 mm 4 mps 635 mmHg 57%
    16:00 +16°C° 0 mm 3 mps 634 mmHg 61%
    17:00 +14°C° 0 mm 3 mps 634 mmHg 66%
    18:00 +14°C° 0 mm 2 mps 634 mmHg 70%
    19:00 +13°C° 0 mm 2 mps 634 mmHg 72%
    20:00 +12°C° 0 mm 1 mps 634 mmHg 74%
    21:00 +11°C° 0 mm 1 mps 634 mmHg 77%
    22:00 +10°C° 0 mm 1 mps 634 mmHg 76%
    23:00 +10°C° 0 mm 1 mps 633 mmHg 76%

    1 June, Monday

    Time Temperature Precipitation Wind Pressure Humidity
    00:00 +10°C° 0 mm 1 mps 633 mmHg 76%
    01:00 +9°C° 0 mm 0 mps 633 mmHg 76%
    02:00 +9°C° 0 mm 0 mps 633 mmHg 76%
    03:00 +9°C° 0 mm 0 mps 633 mmHg 76%
    04:00 +10°C° 0 mm 0 mps 633 mmHg 73%
    05:00 +11°C° 0 mm 0 mps 634 mmHg 70%
    06:00 +12°C° 0 mm 0 mps 634 mmHg 67%
    07:00 +15°C° 0 mm 1 mps 635 mmHg 63%
    08:00 +16°C° 0 mm 1 mps 635 mmHg 60%
    09:00 +18°C° 0 mm 2 mps 635 mmHg 57%
    10:00 +19°C° 0 mm 2 mps 635 mmHg 55%
    11:00 +20°C° 0 mm 2 mps 635 mmHg 53%
    12:00 +21°C° 0 mm 3 mps 635 mmHg 51%
    13:00 +21°C° 0 mm 3 mps 635 mmHg 51%
    14:00 +21°C° 0 mm 3 mps 634 mmHg 51%
    15:00 +21°C° 0 mm 3 mps 634 mmHg 51%
    16:00 +20°C° 0 mm 2 mps 633 mmHg 56%
    17:00 +19°C° 0 mm 2 mps 633 mmHg 61%
    18:00 +19°C° 0 mm 1 mps 632 mmHg 66%
    19:00 +18°C° 0 mm 1 mps 632 mmHg 67%
    20:00 +16°C° 0 mm 1 mps 632 mmHg 69%
    21:00 +15°C° 0 mm 1 mps 631 mmHg 70%
    22:00 +15°C° 0 mm 1 mps 631 mmHg 69%
    23:00 +15°C° 0 mm 1 mps 631 mmHg 67%
    Show more